Weather History for GMMN - February, 2014

Change the Weather History Date:

Friday, February 28, 2014

  Actual Average Record
Temperature  
Mean Temperature 52 °F -  
Max Temperature 65 °F 69 °F 80 °F (1997)
Min Temperature 38 °F 46 °F 33 °F (2012)
Degree Days  
Heating Degree Days 14    
Growing Degree Days 2 (Base 50)    
Moisture  
Dew Point 48 °F    
Average Humidity 80    
Maximum Humidity 94    
Minimum Humidity 53    
Precipitation  
Precipitation 0.00 in - - ()
Sea Level Pressure  
Sea Level Pressure 30.41 in    
Wind  
Wind Speed 6 mph ()    
Max Wind Speed 17 mph    
Max Gust Speed -    
Visibility 5.5 miles    
Events Fog    
Averages and records for this station are not official NWS values.
T = Trace of Precipitation, MM = Missing Value Source: Averaged Metar Reports

Daily Weather History Graph

Daily Weather History Graph

Search for Another Location

Airport or City:

Trip Planner

Search our weather history database for the weather conditions in past years. The results will help you decide how hot, cold, wet, or windy it might be!

Date:

Astronomy

Feb. 28, 2014 Rise Set
Actual Time 7:00 AM WET 6:26 PM WET
Civil Twilight 6:35 AM WET 6:51 PM WET
Nautical Twilight 6:06 AM WET 7:19 PM WET
Astronomical Twilight 5:37 AM WET 7:48 PM WET
Moon 6:03 AM WET (2/28) 5:46 PM WET (2/28)
Length of Visible Light 12h 16m
Length of Day
11h 26m
Waning Crescent, 1% of the Moon is Illuminated
Feb 28
Waning Crescent
Mar 1
New
Mar 8
First Quarter
Mar 16
Full
Mar 24
Last Quarter

Hourly Weather History & Observations

Time (WET) Temp. Windchill Dew Point Humidity Pressure Visibility Wind Dir Wind Speed Gust Speed Precip Events Conditions
12:00 AM 47 °F - 45 °F 88% 30.48 in 5 mi ENE 4.6 mph - -   Scattered Clouds
12:00 AM 48.2 °F - 44.6 °F 87% 30.45 in 5.0 mi ENE 4.6 mph - N/A   Partly Cloudy
12:30 AM 48.2 °F - 44.6 °F 87% 30.45 in 6.2 mi ENE 5.8 mph - N/A   Partly Cloudy
1:00 AM 46.4 °F 44.3 °F 42.8 °F 87% 30.45 in 6.2 mi NE 4.6 mph - N/A   Partly Cloudy
1:30 AM 48.2 °F - 46.4 °F 93% 30.45 in 6.2 mi NE 5.8 mph - N/A   Partly Cloudy
2:00 AM 48.2 °F - 44.6 °F 87% 30.45 in 6.2 mi NE 4.6 mph - N/A   Partly Cloudy
2:30 AM 48.2 °F - 46.4 °F 93% 30.45 in 6.2 mi NE 6.9 mph - N/A   Partly Cloudy
3:00 AM 49 °F - 47 °F 88% 30.48 in 6 mi NE 5.8 mph - -   Scattered Clouds
3:00 AM 48.2 °F - 46.4 °F 93% 30.45 in 5.6 mi NE 5.8 mph - N/A   Partly Cloudy
3:30 AM 46.4 °F 42.9 °F 42.8 °F 87% 30.45 in 5.0 mi ENE 6.9 mph - N/A   Unknown
4:00 AM 44.6 °F 43.1 °F 42.8 °F 93% 30.42 in 4.3 mi East 3.5 mph - N/A   Unknown
4:30 AM 44.6 °F 42.2 °F 42.8 °F 93% 30.45 in 5.0 mi East 4.6 mph - N/A   Unknown
5:00 AM 44.6 °F 41.4 °F 41.0 °F 87% 30.45 in 5.6 mi East 5.8 mph - N/A   Partly Cloudy
5:30 AM 42.8 °F 41.1 °F 41.0 °F 93% 30.42 in 4.3 mi East 3.5 mph - N/A   Partly Cloudy
6:00 AM 43 °F - 41 °F 89% 30.46 in 6 mi ESE 5.8 mph - -   Scattered Clouds
6:00 AM 42.8 °F 39.3 °F 41.0 °F 93% 30.42 in 6.2 mi ESE 5.8 mph - N/A   Partly Cloudy
6:30 AM 42.8 °F 38.0 °F 41.0 °F 93% 30.42 in 5.6 mi ESE 8.1 mph - N/A   Partly Cloudy
7:00 AM 42.8 °F 39.3 °F 41.0 °F 93% 30.42 in 6.2 mi East 5.8 mph - N/A   Partly Cloudy
7:30 AM 42.8 °F 41.1 °F 41.0 °F 93% 30.45 in 6.2 mi East 3.5 mph - N/A   Partly Cloudy
8:00 AM 46.4 °F 44.3 °F 44.6 °F 93% 30.42 in 6.2 mi ESE 4.6 mph - N/A   Partly Cloudy
8:30 AM 48.2 °F - 46.4 °F 93% 30.45 in 6.2 mi East 3.5 mph - N/A   Partly Cloudy
9:00 AM 51 °F - 48 °F 87% 30.48 in 6 mi East 4.6 mph - -   Scattered Clouds
9:00 AM 51.8 °F - 48.2 °F 88% 30.45 in 6.2 mi East 4.6 mph - N/A   Partly Cloudy
9:30 AM 53.6 °F - 48.2 °F 82% 30.45 in 6.2 mi NE 4.6 mph - N/A   Partly Cloudy
10:00 AM 57.2 °F - 48.2 °F 72% 30.45 in 6.2 mi ENE 5.8 mph - N/A   Scattered Clouds
10:30 AM 59.0 °F - 46.4 °F 63% 30.45 in 6.2 mi NE 9.2 mph - N/A   Scattered Clouds
11:00 AM 60.8 °F - 48.2 °F 63% 30.45 in 6.2 mi NE 10.4 mph - N/A   Scattered Clouds
11:30 AM 62.6 °F - 50.0 °F 63% 30.45 in 6.2 mi NE 11.5 mph - N/A   Scattered Clouds
12:00 PM 63 °F - 50 °F 53% 30.42 in 6 mi NE 12.7 mph - -   Scattered Clouds
12:00 PM 62.6 °F - 50.0 °F 63% 30.42 in 6.2 mi NE 12.7 mph - N/A   Scattered Clouds
12:30 PM 64.4 °F - 50.0 °F 59% 30.39 in 6.2 mi NNE 10.4 mph - N/A   Scattered Clouds
1:00 PM 66.2 °F - 50.0 °F 56% 30.39 in 6.2 mi North 12.7 mph - N/A   Scattered Clouds
1:30 PM 66.2 °F - 51.8 °F 60% 30.39 in 6.2 mi NNE 13.8 mph - N/A   Scattered Clouds
2:00 PM 64.4 °F - 51.8 °F 64% 30.36 in 6.2 mi North 17.3 mph - N/A   Scattered Clouds
2:30 PM 64.4 °F - 51.8 °F 64% 30.36 in 6.2 mi NNE 15.0 mph - N/A   Scattered Clouds
3:00 PM 64 °F - 52 °F 56% 30.36 in 6 mi North 13.8 mph - -   Scattered Clouds
3:00 PM 64.4 °F - 51.8 °F 64% 30.36 in 6.2 mi North 13.8 mph - N/A   Scattered Clouds
3:30 PM 64.4 °F - 51.8 °F 64% 30.36 in 6.2 mi NNE 13.8 mph - N/A   Scattered Clouds
4:00 PM 64.4 °F - 51.8 °F 64% 30.36 in 6.2 mi North 13.8 mph - N/A   Scattered Clouds
4:30 PM 62.6 °F - 51.8 °F 68% 30.33 in 6.2 mi NNE 10.4 mph - N/A   Scattered Clouds
5:00 PM 62.6 °F - 51.8 °F 68% 30.36 in 6.2 mi North 13.8 mph - N/A   Scattered Clouds
5:30 PM 60.8 °F - 50.0 °F 68% 30.36 in 6.2 mi North 10.4 mph - N/A   Scattered Clouds
6:00 PM 60 °F - 50 °F 60% 30.37 in 6 mi North 10.4 mph - -   Scattered Clouds
6:00 PM 60.8 °F - 50.0 °F 68% 30.36 in - North 10.4 mph - N/A   Clear
6:30 PM 59.0 °F - 50.0 °F 72% 30.36 in - NNE 6.9 mph - N/A   Clear
7:00 PM 59.0 °F - 50.0 °F 72% 30.36 in - North 8.1 mph - N/A   Clear
7:30 PM 57.2 °F - 51.8 °F 82% 30.39 in - North 9.2 mph - N/A   Clear
8:00 PM 57.2 °F - 51.8 °F 82% 30.39 in 6.2 mi NNE 8.1 mph - N/A   Unknown
8:30 PM 55.4 °F - 51.8 °F 88% 30.39 in 6.2 mi North 6.9 mph - N/A   Scattered Clouds
9:00 PM 55 °F - 52 °F 84% 30.41 in 6 mi NNE 4.6 mph - -   Scattered Clouds
9:00 PM 55.4 °F - 51.8 °F 88% 30.39 in 6.2 mi NNE 4.6 mph - N/A   Scattered Clouds
9:30 PM 55.4 °F - 51.8 °F 88% 30.39 in 6.2 mi NNE 3.5 mph - N/A   Scattered Clouds
10:00 PM 53.6 °F - 50.0 °F 88% 30.39 in 4.3 mi ENE 4.6 mph - N/A   Scattered Clouds
10:10 PM 51.8 °F - 48.2 °F 88% 30.39 in 1.9 mi ESE 4.6 mph - N/A   Scattered Clouds
10:30 PM 50.0 °F - 48.2 °F 94% 30.39 in 1.1 mi ESE 5.8 mph - N/A   Scattered Clouds
10:36 PM 50.0 °F - 48.2 °F 94% 30.39 in 0.5 mi ESE 6.9 mph - N/A Fog Fog
11:00 PM 51.8 °F - 48.2 °F 88% 30.39 in 0.6 mi ESE 4.6 mph - N/A   Mostly Cloudy
11:30 PM 50.0 °F - 48.2 °F 94% 30.36 in 0.2 mi East 3.5 mph - N/A Fog Fog